#timestamp,LO_Frequency,Hit,StdDev 
1571151615.9,286046999.1,N
1571151635.7,286046996.9,N
1571151655.5,286046998.7,N
1571151675.4,286046999.4,N
1571151695.2,286046996.6,N
1571151715.1,286046998.3,N
1571151716.0,286046998.3,N
1571151735.8,286046998.2,N
1571151755.6,286046997.4,N
1571151775.5,286046995.4,N
1571151795.3,286046995.7,N
1571151815.1,286046995.4,N
1571151835.9,286046997.2,N
1571151855.7,286046998.4,N
1571151875.6,286047000.2,N
1571151895.4,286047000.4,N
1571151915.2,286047000.5,N
1571151935.1,286046998.3,N
1571151936.0,286046998.3,N
1571151955.8,286046999.0,N
1571151975.6,286046996.5,N
1571151995.5,286046996.5,N
1571152015.3,286046997.0,N
1571152035.2,286047000.7,N
1571152055.9,286047001.1,N
1571152075.7,286046997.1,N
1571152095.6,286046999.6,N
1571152115.4,286046998.3,N
1571152135.3,286046999.0,N
1571152155.1,286046999.5,N
1571152156.0,286046999.5,N
1571152175.8,286046997.2,N
1571152195.7,286046999.2,N
1571152215.5,286047000.1,N
1571152235.3,286047002.3,N
1571152255.2,286047001.3,N
1571152275.0,286047003.9,N
1571152275.9,286047003.9,N
1571152295.8,286047001.9,N
1571152315.6,286047000.0,N
1571152335.4,286047000.2,N
1571152355.3,286047002.6,N
1571152375.1,286046999.9,N
1571152395.9,286046998.8,N
1571152415.7,286046998.8,N
1571152435.5,286046997.1,N
1571152455.4,286046996.9,N
1571152475.2,286046997.9,N
1571152495.0,286046997.7,N
1571152495.9,286046997.7,N
1571152515.8,286046996.8,N
1571152535.6,286046997.9,N
1571152555.5,286046995.2,N
1571152575.3,286046998.4,N
1571152595.1,286046999.3,N
1571152615.9,286046998.5,N
1571152635.7,286047000.7,N
1571152655.5,286046999.7,N
1571152675.4,286047002.4,N
1571152695.2,286047001.9,N
1571152715.1,286047000.5,N
1571152716.0,286047000.5,N
1571152735.8,286047000.2,N
1571152755.6,286047001.9,N
1571152775.5,286047003.2,N
1571152795.3,286047004.3,N
1571152815.2,286047003.9,N
1571152835.9,286047003.2,N
1571152855.7,286047004.0,N
1571152875.6,286047000.1,N
1571152895.4,286046997.2,N
1571152915.2,286046997.2,N
1571152935.1,286046998.8,N
1571152936.0,286046998.8,N
1571152955.8,286046998.2,N
1571152975.7,286046999.2,N
1571152995.5,286046999.6,N
1571153015.3,286047000.5,N
1571153035.2,286046998.5,N
1571153055.0,286047002.7,N
1571153055.9,286047002.7,N
1571153075.8,286046998.9,N
1571153095.6,286046996.6,N
1571153115.4,286047001.2,N
1571153135.3,286046998.1,N
1571153155.1,286047000.3,N
1571153175.8,286046999.4,N
1571153195.7,286046996.7,N
1571153215.5,286047000.9,N
1571153235.4,286047002.5,N
1571153255.2,286046998.2,N
1571153275.0,286046997.0,N
1571153275.9,286046997.0,N
1571153295.8,286046998.1,N
1571153315.6,286046998.9,N
1571153335.4,286046998.8,N
1571153355.3,286046997.5,N
1571153375.1,286046999.3,N
1571153395.9,286047000.1,N
1571153415.7,286047000.6,N
1571153435.5,286047001.2,N
1571153455.4,286047000.8,N
1571153475.2,286047001.1,N
1571153495.0,286046999.3,N
1571153496.0,286046999.3,N
1571153515.8,286046999.1,N
1571153535.6,286047000.6,N
1571153555.5,286047000.7,N
1571153575.3,286046998.6,N
1571153595.1,286047000.3,N
1571153615.9,286047002.3,N
1571153635.7,286047000.3,N
1571153655.6,286046999.6,N
1571153675.4,286047001.0,N
1571153695.2,286047000.0,N
1571153715.1,286047001.8,N
1571153716.0,286047001.8,N
1571153735.8,286047001.7,N
1571153755.7,286047001.9,N
1571153775.5,286047001.5,N
1571153795.3,286046999.8,N
1571153815.2,286047001.9,N
1571153835.0,286047001.4,N
1571153835.9,286047001.4,N
1571153855.8,286047004.2,Y
1571153875.6,286047004.4,P
1571153895.4,286047003.1,N
1571153915.3,286047003.2,N
1571153935.1,286047002.9,N
1571153955.8,286047005.7,Y
1571153975.7,286047000.0,P
1571153995.5,286046999.9,N
1571154015.4,286047000.1,N
1571154035.2,286047000.3,N
1571154055.0,286046999.7,N
1571154055.9,286046999.7,N
1571154075.8,286046999.7,N
1571154095.6,286047000.5,N
1571154115.8,286047000.3,N
1571154135.6,286047000.5,N
1571154155.5,286046999.7,N
1571154175.3,286047000.2,N
1571154195.2,286046998.7,N
1571154215.9,286046998.1,N
1571154235.7,286047000.7,N
1571154255.6,286047000.7,N
1571154275.4,286046998.1,N
1571154295.3,286046999.2,N
1571154315.1,286046999.3,N
1571154316.0,286046999.3,N
1571154335.8,286046998.9,N
1571154355.7,286046998.7,N
1571154375.4,286046999.5,N
1571154395.3,286046996.6,Y
1571154415.1,286046996.5,P
1571154435.9,286046996.6,N
1571154455.7,286046999.4,N
1571154475.5,286046999.0,N
1571154495.4,286047001.1,N
1571154515.2,286046998.1,N
1571154535.0,286046998.9,N
1571154535.9,286046998.9,N
1571154555.8,286046997.1,N
1571154575.6,286046996.9,N
1571154595.5,286046997.5,N
1571154615.3,286046997.7,N
1571154635.1,286046997.6,N
1571154655.9,286046999.6,N
1571154675.7,286046999.6,N
1571154695.6,286046997.3,N
1571154715.4,286046997.8,N
1571154735.2,286046997.4,N
1571154755.1,286046996.7,N
1571154756.0,286046996.7,N
1571154775.8,286046996.8,N
1571154795.7,286046995.3,Y
1571154815.5,286046997.1,P
1571154835.3,286046997.0,P
1571154855.2,286046997.5,P
1571154875.0,286046997.2,Y
1571154875.9,286046997.2,P
1571154895.7,286047002.5,P
1571154915.6,286047000.4,N
1571154935.4,286046996.9,N
1571154955.3,286046999.3,N
1571154975.1,286046999.1,N
1571154995.9,286046998.7,N
1571155015.7,286046996.6,N
1571155035.5,286046995.7,N
1571155055.4,286046996.3,N
1571155075.2,286046995.8,N
1571155095.0,286046994.9,N
1571155095.9,286046994.9,N
1571155115.8,286046993.7,N
1571155135.6,286046995.9,N
1571155155.5,286046995.2,N
1571155175.3,286046996.3,N
1571155195.2,286046996.2,N
